User: anonymous   Login
Location: Elk Forest
(39.5314°N, 75.8738°W)
Time: 15:58:37
(UTC-05:00)
Language:

Resurs 01 Rocket - Orbit

View from above orbital plane
View from above orbital plane
View from above satellite
View from above satellite

Ground track
Ground track

The orbit data is extracted from the following two-line orbital elements,

1 23343U 94074B   15027.15664338  .00000290  00000-0  49540-4 0  2327
2 23343 098.2239 040.0763 0006512 356.6885 045.1692 14.76381509 88147
Epoch (UTC): 27 January 2015 03:45:33
Eccentricity: 0.0006512
inclination: 98.2239°
perigee height: 636 km
apogee height: 645 km
right ascension of ascending node: 40.0763°
argument of perigee: 356.6885°
revolutions per day: 14.76381509
mean anomaly at epoch: 45.1692°
orbit number at epoch: 8814

The dashed part of the orbit path shows where the satellite is in the earth's shadow,  

DLR